User: anonymous
Location: Limerick
(52.6800°N, 8.6400°W)
Time: 15:53:18
(UTC+01:00)
Language:

Sapphire - Orbit

View from above orbital plane
View from above orbital plane
View from above satellite
View from above satellite

Ground track
Ground track

The orbit data is extracted from the following two-line orbital elements,

1 26932U 01043D   14237.11992843  .00000023  00000-0  41130-4 0  6876
2 26932 067.0558 221.7198 0006457 293.9548 066.0876 14.30022136673503
Epoch (UTC): 25 August 2014 02:52:41
Eccentricity: 0.0006457
inclination: 67.0558°
perigee height: 787 km
apogee height: 796 km
right ascension of ascending node: 221.7198°
argument of perigee: 293.9548°
revolutions per day: 14.30022136
mean anomaly at epoch: 66.0876°
orbit number at epoch: 67350

The dashed part of the orbit path shows where the satellite is in the earth's shadow,  

DLR